Hourly Data Report for April 14, 2017

TORONTO CITY
ONTARIO

43°40'00.000" N
79°24'00.000" W
112.50 m
6158355
71508
XTO

Download Data

Hourly Data (April 2017)
Hourly Data Report for April 14, 2017
TIME
LST
Temp Definition
°C
Dew Point Definition
°C
Rel Hum Definition
%
Precip. Amount Definition
mm

Wind Dir Definition
10's deg

Wind Spd Definition
km/h
Visibility Definition
km
Stn Press Definition
kPa
Hmdx Definition


Wind Chill Definition


Weather Definition


00:00 9.1 -3.6 40 0.0 LegendMM LegendMM   101.57     LegendNANA
01:00 8.1 -4.1 42 0.0 LegendMM LegendMM   101.56     LegendNANA
02:00 7.4 -5.8 38 0.0 LegendMM LegendMM   101.54     LegendNANA
03:00 7.0 -7.5 35 0.0 LegendMM LegendMM   101.53     LegendNANA
04:00 7.1 -7.0 36 0.0 LegendMM LegendMM   101.54     LegendNANA
05:00 6.8 -6.6 38 0.0 LegendMM LegendMM   101.56     LegendNANA
06:00 6.4 -5.8 41 0.0 LegendMM LegendMM   101.60     LegendNANA
07:00 7.3 -5.9 39 0.0 LegendMM LegendMM   101.65     LegendNANA
08:00 9.1 -4.2 39 0.0 LegendMM LegendMM   101.68     LegendNANA
09:00 10.4 -4.8 34 0.0 LegendMM LegendMM   101.67     LegendNANA
10:00 11.6 -3.3 35 0.0 LegendMM LegendMM   101.68     LegendNANA
11:00 11.6 -2.0 39 0.0 LegendMM LegendMM   101.67     LegendNANA
12:00 12.6 -3.0 34 0.0 LegendMM LegendMM   101.63     LegendNANA
13:00 13.2 -5.3 27 0.0 LegendMM LegendMM   101.56     LegendNANA
14:00 13.8 -7.7 22 0.0 LegendMM LegendMM   101.50     LegendNANA
15:00 14.3 -8.7 19 0.0 LegendMM LegendMM   101.40     LegendNANA
16:00 13.7 -10.6 17 0.0 LegendMM LegendMM   101.36     LegendNANA
17:00 13.6 -11.1 17 0.0 LegendMM LegendMM   101.35     LegendNANA
18:00 12.6 -7.7 23 0.0 LegendMM LegendMM   101.34     LegendNANA
19:00 11.7 -8.0 24 0.0 LegendMM LegendMM   101.30     LegendNANA
20:00 10.4 -7.0 29 0.0 LegendMM LegendMM   101.28     LegendNANA
21:00 9.2 -5.5 35 0.0 LegendMM LegendMM   101.30     LegendNANA
22:00 8.6 -4.1 40 0.0 LegendMM LegendMM   101.27     LegendNANA
23:00 8.7 -4.5 39 0.0 LegendMM LegendMM   101.24     LegendNANA

Notes on Data Quality.

Legend

  • E = Estimated
  • M = Missing
  • NA = Not Available*
  • [empty] = Indicates an unobserved value
Date modified: